Regional Weather Roundup
Issued by NWS

Home | Current Version | Previous Version | Text Only | Print | Product List | Glossary On
Versions: 1 2 3 4 5 6 7 8 9 10 11 12 13 14 15 16 17 18 19 20 21 22 23 24 25 26 27 28 29 30 31 32 33 34 35 36 37 38 39 40 41 42 43 44 45 46 47 48
000
ASUS43 KMPX 131210
RWRMN
WEATHER ROUNDUP FOR MINNESOTA
NATIONAL WEATHER SERVICE TWIN CITIES/CHANHASSEN MN
700 AM CDT THU AUG 13 2020


NOTE: "FAIR" INDICATES FEW OR NO CLOUDS BELOW 12,000 FEET WITH NO
SIGNIFICANT WEATHER AND/OR OBSTRUCTIONS TO VISIBILITY. N/A MEANS
CURRENT SKY AND/OR WEATHER CONDITIONS ARE NOT AVAILABLE.

MNZ060>063-068>070-131300-
   Twin Cities Metro

CITY           SKY/WX    TMP DP  RH WIND       PRES   REMARKS
TWIN CITIES    PTCLDY    69  66  90 SE7       30.00R
6HR MIN TEMP:  68; 6HR MAX TEMP:  71;

ST PAUL        PTCLDY    69  64  84 S7        30.00S
CRYSTAL        PTCLDY    68  65  90 S6        29.98S
BLAINE         CLEAR     70  66  88 SE6       29.99S
LAKEVILLE      CLEAR     70  66  88 S5        30.01R
EDEN PRAIRIE   CLEAR     70  66  87 SE6       29.99R
6HR MIN TEMP:  68; 6HR MAX TEMP:  71;

SOUTH ST PAUL  CLEAR     69  65  88 S3        30.00S
LAKE ELMO      FAIR      64  63  94 SE3       30.02S
$$
MNZ001>005-007-008-013>017-022>024-027-028-131300-
   Northwest Minnesota

CITY           SKY/WX    TMP DP  RH WIND       PRES   REMARKS
BEMIDJI        CLOUDY    62  60  94 SE13      29.96F
HALLOCK        CLOUDY    64  63  94 SE14      29.84F
ROSEAU         CLEAR     61 N/A N/A E10       29.91F
WARROAD        PTCLDY    59  55  88 SE13      29.95F
THIEF RVR FALL CLEAR     63  61  93 E14       29.89F
CROOKSTON      CLEAR     64  64 100 SE9       29.86S
FOSSTON        PTCLDY    63  59  88 SE13      29.90F
DETROIT LAKES  FOG       63  63 100 SE12      29.93R VSB 3/4
MOORHEAD       CLOUDY    70  64  83 SE9       29.86S
PARK RAPIDS    CLOUDY    63  60  90 SE10      29.96R FOG
MAHNOMEN       CLOUDY    64  63  95 SE12G17   29.90S
$$
MNZ006-009>011-018-025>026-131300-
   North Central Minnesota

CITY           SKY/WX    TMP DP  RH WIND       PRES   REMARKS
BAUDETTE       CLEAR     58  56  93 SE12      29.99F
FLAG ISLAND      N/A     64  57  77 SE7       29.95F
INTL FALLS     CLEAR     58  55  90 SE10      30.02F
6HR MIN TEMP:  54; 6HR MAX TEMP:  63;

WASKISH        CLEAR     57  54  88 E7        29.97F
BIG FORK       MOCLDY    59  57  94 CALM      30.06F
LONGVILLE      CLOUDY    63  61  94 SE6       29.99S
GRAND RAPIDS   CLOUDY    62  59  90 SE9       30.04S
CRANE LAKE     CLEAR     54  54 100 CALM      30.08F
ORR            MOCLDY    61  55  82 SE5       30.03F
COOK           CLEAR     61  57  88 CALM      30.05S
WALKER         CLOUDY    62  60  94 SE7       29.98S
$$
MNZ012-019>021-037-131300-
   Northeast Minnesota

CITY           SKY/WX    TMP DP  RH WIND       PRES   REMARKS
DULUTH         CLOUDY    63  58  83 E13       30.07S
6HR MIN TEMP:  62; 6HR MAX TEMP:  63;

ELY            PTCLDY    63  61  94 SE7       30.08F
HIBBING        CLOUDY    62  57  83 SE9       30.05S
EVELETH        CLOUDY    63  58  86 SE5       30.07S
DULUTH HARBOR  CLOUDY    64  57  77 E7        30.07R
TWO HARBORS    CLEAR     63  55  77 NE6       30.08S
SILVER BAY       N/A     63  61  94 CALM      30.10F
GRAND MARAIS     N/A     60  55  83 E6        30.13S
G MARAIS ARPRT CLEAR     63  54  72 E3        30.15F
$$
MNZ029>031-032-039>041-046>048-054>057-064-131300-
   West Central Minnesota

CITY           SKY/WX    TMP DP  RH WIND       PRES   REMARKS
FERGUS FALLS   CLOUDY    70  66  88 SE13      29.90R
WHEATON        CLOUDY    70  66  88 SE13      29.89R FOG
MORRIS         CLOUDY    70  70 100 SE12      29.92R FOG
ALEXANDRIA     FOG       67  67 100 SE9       29.96R VSB 1/4
ELBOW LAKE     CLOUDY    69  69 100 E15       29.92R
WADENA         FOG       63  63 100 SE10      29.95S VSB 1/4
GLENWOOD         N/A     70  70 100 SE13      29.95R FOG
APPLETON       PTCLDY    72  68  88 S10       29.90R
BENSON         MOCLDY    72  70  94 S8        29.93R
ORTONVILLE     PTCLDY    68  66  94 SE8       29.89R FOG
MADISON        PTCLDY    72  70  94 S7        29.92R
WILLMAR        CLOUDY    73  72  94 SE9       29.97S FOG
$$
MNZ033>034-036-042>043-049>051-058-059-131300-
   Central Minnesota

CITY           SKY/WX    TMP DP  RH WIND       PRES   REMARKS
ST CLOUD       CLOUDY    64  63  96 E7        29.98R
6HR MIN TEMP:  62; 6HR MAX TEMP:  64;

SAUK CENTRE    FOG       66  66 100 SE7       29.96R VSB<1/4
PAYNESVILLE    FOG       70  70 100 SE6       29.97R VSB 1/2
AITKIN         CLOUDY    61  57  88 E7        30.00S
PINE RIVER     CLOUDY    61  57  88 SE8       30.02R
BRAINERD       CLOUDY    68  63  84 SE7G17    29.99R
STAPLES        CLOUDY    63  61  94 E3        29.97R FOG
LONG PRAIRIE   FOG       63  63 100 SE5       29.97R VSB<1/4
LITTLE FALLS   CLOUDY    64  64 100 E6        29.98S
CAMP RIPLEY    CLOUDY    65  64  99 SE7       29.99R FOG
LITCHFIELD     CLOUDY    72  72 100 S5        29.98R FOG
BUFFALO        CLEAR     69  67  92 MISG      29.98F
MAPLE LAKE       N/A     69  69  99 CALM      29.98F FOG
HUTCHINSON     CLOUDY    72  71  99 S7        29.99R FOG
$$
MNZ037-044-045-052-053-131300-
   East Central Minnesota

CITY           SKY/WX    TMP DP  RH WIND       PRES   REMARKS
PRINCETON      PTCLDY    66  64  94 CALM      29.99S
MORA           CLOUDY    63  61  94 CALM      30.03R
CAMBRIDGE      CLEAR     66  57  72 E3        30.00R
RUSH CITY      CLOUDY    63  60  92 E5        30.02R
MOOSE LAKE     CLOUDY    63  59  88 E3        30.02S
HINCKLEY       CLOUDY    64  63  94 E6        30.03R
CLOQUET        CLOUDY    63  57  82 E9        30.05F
MCGREGOR       CLOUDY    63  61  94 E9        30.02F
$$
MNZ071>073-080-081-089-090-097-098-131300-
   Southwest Minnesota

CITY           SKY/WX    TMP DP  RH WIND       PRES   REMARKS
MONTEVIDEO     CLEAR     72  68  88 S7        29.92S
GRANITE FALLS  CLEAR     72  70  95 SE9       29.94S
CANBY          PTCLDY    73  69  89 S5        29.93R
MARSHALL       CLEAR     73  70  90 S12       29.94R
REDWOOD FALLS  CLOUDY    72  70  93 S14       29.95R FOG
OLIVIA         CLOUDY    72  70  94 SE8       29.95S FOG
PIPESTONE        N/A     72  70  94 SW13      29.97R
WINDOM         MOCLDY    72  70  94 S8        29.97S FOG
WORTHINGTON    FOG       70  70 100 S8        29.99S VSB 1/2
JACKSON        CLOUDY    72  70  94 S10       30.00S
SLAYTON        MOCLDY    71  65  83 S10G17    29.98R HAZE
$$
MNZ065>067-074>077-082>085-091>093-131300-
   South Central Minnesota

CITY           SKY/WX    TMP DP  RH WIND       PRES   REMARKS
MANKATO        MOCLDY    69  69 100 S10       30.00R
NEW ULM        CLOUDY    72  72 100 S7        29.98R FOG
ST JAMES         N/A     72  72 100 S8        29.98R
FAIRMONT       CLOUDY    71  70  96 S8        30.00S FOG
GLENCOE        MOCLDY    69  68  96 S5        29.97S
FARIBAULT      CLEAR     70  64  83 SE9       30.02R
OWATONNA       CLEAR     70  64  83 SE12G17   30.02R
ALBERT LEA     PTCLDY    66  64  94 S9        30.04R
$$
MNZ078>079-086>088-094>096-131300-
   Southeast Minnesota

CITY           SKY/WX    TMP DP  RH WIND       PRES   REMARKS
ROCHESTER      CLEAR     66  61  84 S10       30.06S
6HR MIN TEMP:  65; 6HR MAX TEMP:  69;

RED WING       CLEAR     70  63  78 SE6       30.01R
STANTON        CLEAR     69  64  84 S9        30.00R
DODGE CENTER   CLEAR     64  61  88 SE7       30.05R
WINONA         CLEAR     68  63  83 SE5       30.05S
AUSTIN         CLEAR     66  64  94 S5        30.06R
PRESTON        CLEAR     65  59  82 S6        30.07S
$$
ABBREVIATIONS USED IN REMARKS
   TC - TEMPERATURES IN CELSIUS
  WCI - WIND CHILL INDEX
   HX - HEAT INDEX
  VSB - VISIBILITY
$$



USA.gov is the U.S. government's official web portal to all federal, state and local government web resources and services.